weather.gov     
National Weather Service

Regional Weather Roundup
NWS Homepage
This page is being discontinued on March 12, 2014.
The same data is available at this site. Please update your bookmarks.
Thank you, and we apologize for the inconvenience.
Please send an email to SR-SRH.Webmaster@noaa.gov with any concerns.


Current Version
Previous Version:    01  02  03  04  05  06  07  08  09  10  11  12  13  14  15  16  17  18  19  20  21  22  23  24  25  26  27  28  29  30  
   31  32  33  34  35  36  37  38  39  40  41  42  43  44  45  46  47  48  49  50  51  52  53  54  55  56  57  58  59  60  
[Printable]
612
ASUS44 KOHX 020415
RWROHX
MIDDLE TENNESSEE HOURLY WEATHER ROUNDUP
NATIONAL WEATHER SERVICE NASHVILLE TN
1100 PM CDT WED OCT 01 2014

NOTE: "FAIR" INDICATES FEW OR NO CLOUDS BELOW 12,000 FEET WITH
NO SIGNIFICANT WEATHER AND/OR OBSTRUCTIONS TO VISIBILITY.

* THESE REPORTS ARE NOT UNDER NWS QUALITY CONTROL AND MAY NOT
  REPORT WEATHER SUCH AS PRECIPITATION AND FOG.


TNZ005>011-023>034-057-059-062>066-078-080-020500
...NORTHERN MIDDLE TENNESSEE...

CITY           SKY/WX    TMP DP  RH WIND       PRES   REMARKS
CLARKSVILLE    CLEAR     64  59  83 E7        29.95S
CROSSVILLE     CLEAR     62  56  80 CALM      30.07F
GALLATIN         N/A     64  58  81 CALM      29.99F
LEBANON        CLEAR     63  57  80 CALM      29.97F
LIVINGSTON     CLEAR     69  56  63 S3        30.04S
NASHVILLE      CLEAR     70  58  65 S3        29.98S
PORTLAND       CLEAR     64  55  72 SE5       29.98F
SMYRNA         CLEAR     65  59  81 CALM      29.99S
SPARTA         CLEAR     57  55  94 CALM      30.01F
$$
TNZ056-058-060-061-075>077-079-093>097-020500
...SOUTHERN MIDDLE TENNESSEE...

CITY           SKY/WX    TMP DP  RH WIND       PRES   REMARKS
COLUMBIA       CLEAR     64  64 100 CALM      29.96F
FAYETTEVILLE   CLEAR     66  55  68 S5        30.00F
LEWISBURG      CLEAR     61  58  90 CALM      29.98F
MCMINNVILLE    CLEAR     61  61 100 CALM      30.02F
MURFREESBORO   CLEAR     67  58  72 CALM      29.98S
SHELBYVILLE    CLEAR     64  61  88 E3        30.00F
TULLAHOMA      CLEAR     61  57  88 CALM      30.02F
WINCHESTER     CLEAR     63  59  88 CALM      30.02S
$$


...KEY TO REMARKS...
VSB - VISIBILITY IN MILES
WCI - WIND CHILL INDEX
HX  - HEAT INDEX





U.S. Dept. of Commerce
NOAA National Weather Service
1325 East West Highway
Silver Spring, MD 20910
E-mail: w-nws.webmaster@noaa.gov
Page last modified: May 16, 2007
NATIONAL WEATHER SERVICE: for Safety, for Work, for Fun - FOR LIFE